Content
SEND FEEDBACK

Daily
Averages
Monthly
Summary
Spain

SANTA CRUZ DE TENERIFE, SPAIN


Home > Europe > Spain
Elevation: 151 feet     Latitude: 28 27N     Longitude: 016 15W

WEATHER
 
SELECT A DAY
Number of Records: 206,328;   Date Range: 7/1/96 - 7/31/14
 
SHARE

PRINT THIS DATA

[ ← Previous Day ]
WEATHER ALMANAC - MAY 10, 2013
[ Next Day → ]
[ °C ]   °F
Weather ElementAverageHighLow
Temperature70.5 °F78.8 °F (1:00 pm)60.8 °F (10:00 pm)
Dewpoint46.6 °F62.6 °F (6:14 pm)26.6 °F (7:00 am)
Humidity51.1 %94 % (8:00 pm)16 % (2:30 pm)
Barometer30.13 in30.15 in (10:00 am)30.09 in (7:00 am)
Wind Speed10.3 mph18.4 mph (6:14 pm)
Weather ElementAverage
Visibility6.2 mi
Wind DirectionSW (229.7 °)

Weather ElementTotal
Precipitation---
Cooling Degree Days4.8 (Base 65)
Growing Degree Days19.8 (Base 50)
Averaged from 33 records on May 10, 2013
WEATHER CONDITIONS BREAKOUT
WIND DIRECTION BREAKOUT
WEATHER BY HOUR - MAY 10, 2013
[ °C ]   °F
Local TimeTemperatureDewpointHumidityBarometerVisibilityWind DirectionWind SpeedGust SpeedPrecipitationEventsConditions
6:30 AM64.4 °F28.4 °F26 %30.12 inWest (270°)10.4 mphClear
7:00 AM66.2 °F26.6 °F23 %30.09 inWest (260°)3.5 mphClear
7:30 AM66.2 °F26.6 °F23 %30.12 inWest (270°)5.8 mphClear
8:00 AM64.4 °F35.6 °F34 %30.12 inWest (270°)9.2 mphClear
8:30 AM68.0 °F33.8 °F28 %30.12 inWest (270°)9.2 mphClear
9:00 AM71.6 °F33.8 °F25 %30.12 inWest (270°)8.1 mphClear
10:00 AM75.2 °F30.2 °F19 %30.15 inWest (280°)5.8 mphClear
11:00 AM77.0 °F46.4 °F34 %30.15 inVariable3.5 mphClear
11:30 AM75.2 °F50.0 °F41 %30.15 inESE (120°)4.6 mphClear
12:00 PM77.0 °F44.6 °F32 %30.15 inESE (120°)4.6 mphClear
12:30 PM77.0 °F44.6 °F32 %30.15 inESE (120°)5.8 mphClear
1:00 PM78.8 °F42.8 °F28 %30.15 inSE (130°)5.8 mphClear
1:30 PM77.0 °F39.2 °F26 %30.15 inSSE (150°)8.1 mphClear
2:00 PM78.8 °F33.8 °F20 %30.15 inSE (140°)6.9 mphClear
2:30 PM78.8 °F28.4 °F16 %30.15 inESE (120°)5.8 mphClear
3:00 PM78.8 °F30.2 °F17 %30.15 inESE (110°)5.8 mphClear
3:30 PM78.8 °F32.0 °F18 %30.12 inESE (120°)6.9 mphClear
4:00 PM78.8 °F28.4 °F16 %30.12 in6.2 miESE (120°)6.9 mphPartly Cloudy
4:30 PM75.2 °F60.8 °F61 %30.12 in6.2 miWest (280°)8.1 mphPartly Cloudy
5:00 PM73.4 °F60.8 °F65 %30.12 in6.2 miWNW (290°)11.5 mphPartly Cloudy
5:30 PM73.4 °F60.8 °F65 %30.12 in6.2 miWNW (290°)10.4 mphPartly Cloudy
6:00 PM71.6 °F60.8 °F69 %30.12 in6.2 miWNW (300°)13.8 mphPartly Cloudy
6:14 PM69.8 °F62.6 °F78 %30.12 in6.2 miWNW (300°)18.4 mphPartly Cloudy
6:30 PM66.2 °F62.6 °F88 %30.12 in6.2 miWNW (300°)18.4 mphFogPatches of Fog
7:00 PM66.2 °F60.8 °F83 %30.12 in6.2 miWNW (300°)18.4 mphFogPatches of Fog
7:30 PM64.4 °F60.8 °F88 %30.12 in6.2 miWNW (300°)18.4 mphFogPatches of Fog
8:00 PM62.6 °F60.8 °F94 %30.12 in6.2 miWNW (300°)16.1 mphFogScattered Clouds
8:30 PM62.6 °F60.8 °F94 %30.12 in6.2 miWNW (300°)15.0 mphPartly Cloudy
9:00 PM62.6 °F60.8 °F94 %30.12 in6.2 miWNW (300°)15.0 mphFogPatches of Fog
9:30 PM62.6 °F60.8 °F94 %30.15 in5.6 miWNW (300°)16.1 mphFogPatches of Fog
10:00 PM60.8 °F59.0 °F94 %30.15 in6.2 miWNW (290°)16.1 mphFogPatches of Fog
10:30 PM60.8 °F57.2 °F88 %30.15 inWNW (300°)13.8 mphClear
11:00 PM62.6 °F53.6 °F72 %30.15 inWNW (290°)15.0 mphClear
Hourly data recorded from GCXO, located miles away from Santa Cruz de Tenerife, Spain







STORIES FROM OUR PARTNERS